Probability
1 1 0 0 0 0 0 0 0 0 0 0 0 0 0 0 0 0 0 0 0 0 0 0 1 0 1 2 3 3 3 3 3 4 6 6 4 2 2 5 6 7 8 8 8 9 7 5 4
1 0 0 0 0 0 0 0 0 0 0 0 0 0 0 0 0 0 0 0 0 0 0 1 1 1 1 2 3 3 3 3 3 4 5 5 4 2 2 4 6 7 8 9 10 9 7 6 6
0 0 0 0 0 0 0 0 0 0 0 0 0 0 0 0 0 0 0 0 0 0 0 1 2 2 2 3 3 3 3 3 3 3 4 4 3 2 2 3 4 5 6 6 8 8 6 6 6
0 0 0 0 0 0 0 0 0 0 0 0 0 0 0 0 0 0 0 0 1 1 1 0 1 2 3 3 3 3 3 3 3 3 3 3 2 1 1 2 3 3 3 4 4 4 4 4 4
0 0 0 0 0 0 0 0 0 0 0 0 0 0 0 0 0 0 0 0 1 2 2 1 1 2 3 3 3 3 3 3 2 2 3 2 1 1 1 1 1 3 3 3 3 2 2 3 3
0 0 0 0 0 0 0 0 0 0 0 0 0 1 0 0 0 0 0 0 1 2 2 1 0 1 1 2 3 3 3 2 1 1 2 2 1 1 1 1 1 2 3 4 4 2 1 2 3
0 0 0 0 0 0 0 0 0 0 0 0 0 0 0 0 0 0 0 0 0 1 2 1 1 1 1 1 3 3 3 3 1 1 2 2 2 2 2 1 1 2 3 3 3 1 1 2 3
0 0 0 0 0 0 0 0 0 0 0 0 0 0 0 1 2 1 1 0 0 0 1 2 3 2 1 1 2 3 3 3 2 1 1 2 3 3 2 1 1 1 2 1 1 0 1 1 1
0 0 0 0 0 0 0 0 0 0 0 0 1 1 1 2 3 3 2 1 0 0 1 2 3 3 2 2 3 4 4 3 2 2 2 2 3 3 2 1 0 1 1 0 0 0 0 0 0
0 0 0 0 0 0 0 0 0 0 0 0 1 2 3 3 3 3 2 1 0 0 1 2 3 3 3 3 4 5 5 3 2 2 2 2 2 2 1 0 0 0 0 0 0 0 0 0 0
0 0 0 0 0 0 0 0 0 0 0 0 1 3 3 4 3 3 3 1 0 0 1 2 3 3 3 3 4 5 5 4 3 3 2 1 1 1 0 0 0 0 0 0 0 0 0 0 0
0 0 0 0 0 0 0 0 0 0 0 0 1 2 3 4 3 3 3 2 2 2 1 2 3 3 3 3 4 5 5 5 4 3 1 0 0 0 0 0 0 0 0 0 0 0 0 0 0
0 0 0 0 0 0 0 0 0 0 0 0 0 1 2 3 2 3 3 3 3 3 3 3 3 3 3 3 4 5 5 4 3 2 1 0 0 0 0 0 0 0 0 0 0 0 0 0 0
0 0 0 0 0 0 0 0 0 0 0 0 0 0 1 1 1 2 3 3 3 3 3 3 3 3 3 3 3 4 3 2 1 1 0 0 0 0 0 0 0 0 0 0 0 0 0 0 0
0 0 0 0 0 0 0 0 0 0 0 0 0 0 0 1 1 1 2 3 3 3 3 3 3 3 3 3 3 3 3 1 0 0 0 0 0 0 0 0 0 0 0 0 0 0 0 0 0
0 0 0 0 0 0 0 0 0 0 0 0 0 0 0 0 0 0 1 2 3 3 3 3 3 3 3 3 3 3 3 2 1 0 0 0 0 0 0 0 0 0 0 0 0 0 0 0 0
0 0 0 0 0 0 0 0 0 0 0 0 0 0 0 0 0 0 0 1 3 3 3 3 3 3 3 3 3 3 3 2 1 0 0 0 0 0 0 0 0 0 0 0 0 0 0 0 0
0 0 0 0 0 0 0 0 0 1 1 0 0 0 0 0 0 0 0 1 2 3 3 3 3 3 3 3 3 3 2 1 0 0 0 0 0 0 0 0 0 0 0 0 0 0 0 0 0
0 0 0 0 0 0 0 0 1 2 1 0 0 0 0 0 0 0 0 0 1 3 3 3 3 3 3 3 3 3 2 1 0 0 0 0 0 0 0 0 0 0 0 0 0 0 0 0 0
0 0 0 0 0 0 0 0 1 1 1 0 0 0 0 0 0 0 0 0 1 2 3 3 3 3 3 3 3 3 2 1 0 0 0 0 0 0 0 0 0 0 0 0 0 0 0 0 0
0 0 0 0 0 0 0 0 0 0 0 0 0 0 0 0 0 0 0 0 0 1 3 3 3 3 3 3 3 3 2 1 0 0 0 0 0 0 0 0 0 0 0 0 0 0 0 0 0
0 0 0 0 0 0 0 0 0 0 0 0 0 0 0 0 0 0 0 0 0 1 2 3 3 3 3 3 3 3 2 1 0 0 0 0 0 0 0 0 0 0 0 0 0 0 0 0 0
0 0 0 0 0 0 0 0 0 0 0 0 0 0 0 0 0 0 0 0 0 0 1 3 3 3 3 3 3 3 2 1 0 0 0 0 0 0 0 0 0 0 0 0 0 0 0 0 0
0 0 0 0 0 0 0 0 0 0 0 0 0 0 0 0 0 0 0 1 0 0 1 2 3 3 3 3 3 3 3 1 0 0 0 0 0 0 0 0 0 0 0 0 0 0 0 0 0
0 0 0 0 0 0 0 0 0 0 0 0 0 0 0 0 0 0 0 0 0 0 1 2 3 3 3 3 3 3 3 2 1 0 0 0 0 0 0 0 0 0 0 0 0 0 0 0 0
0 0 0 0 0 0 0 0 0 0 0 0 0 0 0 0 0 0 0 0 0 0 0 1 3 3 3 3 3 3 3 2 1 0 0 0 0 0 0 0 0 0 0 0 0 0 0 0 0
0 0 0 0 0 0 0 0 0 0 0 0 0 0 0 0 0 0 0 0 0 0 0 1 2 3 3 3 3 3 2 1 0 0 0 0 0 0 0 0 0 0 0 0 0 0 0 0 0
0 0 0 0 0 0 0 0 0 0 0 0 0 0 0 0 0 0 0 0 0 1 0 1 2 3 3 3 3 3 1 0 0 0 0 0 0 0 0 0 0 0 0 0 0 0 0 0 0
0 0 0 0 0 0 0 0 0 0 0 0 0 0 0 0 0 0 0 0 0 0 0 1 3 3 3 3 3 2 1 0 0 0 0 0 0 0 0 0 0 0 0 0 0 0 0 0 0
0 0 0 0 0 0 0 0 0 0 0 0 0 0 0 0 0 0 0 0 0 0 1 2 3 3 3 3 3 1 0 0 0 0 0 0 0 0 0 0 0 0 0 0 0 0 0 0 0
Wind_Speed
3 2 3 4 6 6 2 1 0 1 2 2 4 6 6 4 3 3 1 1 2 1 2 2 5 6 7 8 9 9 9 9 10 10 10 11 10 10 10 10 10 10 10 10 10 10 9 10 9
1 2 4 5 6 4 2 2 1 1 3 3 5 5 5 4 3 3 1 1 2 2 2 3 6 7 7 8 8 9 9 10 10 10 11 11 11 11 10 10 10 10 10 10 10 10 9 9 9
1 3 5 5 4 3 2 0 2 3 3 2 4 4 4 2 2 2 1 2 3 3 3 3 6 7 8 8 8 9 9 10 10 11 11 11 11 11 10 10 10 10 10 10 10 9 9 9 9
3 4 5 6 4 1 2 1 2 3 3 4 4 4 3 2 2 2 3 3 3 3 3 3 6 7 7 8 8 9 10 10 10 10 10 11 10 10 10 9 9 10 10 10 9 9 10 9 9
4 5 6 4 2 1 0 1 1 3 2 3 4 4 2 3 3 5 4 4 3 2 2 3 6 6 7 7 8 8 9 10 10 10 10 10 10 10 10 9 9 10 11 10 10 10 9 9 9
5 5 5 2 1 1 1 1 2 3 3 3 4 4 1 1 3 4 4 3 3 3 3 3 5 6 7 7 7 8 9 9 10 10 10 10 11 11 11 12 12 12 11 11 11 10 9 9 9
5 5 4 3 1 1 1 1 2 3 3 2 4 4 1 1 2 3 3 3 3 3 3 3 3 4 6 7 7 8 9 10 10 11 11 12 12 12 13 13 13 13 12 12 11 10 9 9 9
4 5 3 2 2 0 1 2 2 3 2 2 3 6 4 3 3 4 4 4 3 3 3 3 3 3 3 4 6 8 9 9 10 10 11 12 12 12 12 12 13 13 13 13 12 11 10 9 9
4 6 2 2 3 1 0 2 2 2 4 2 2 2 3 6 6 5 4 3 2 2 2 2 2 3 3 3 5 5 7 8 8 8 10 10 6 6 7 10 13 13 13 13 12 12 11 11 10
5 4 3 2 3 2 1 2 2 3 3 3 3 4 6 7 7 6 4 2 1 0 1 1 2 2 2 2 3 3 3 4 5 4 5 4 5 5 7 11 13 13 13 12 12 12 11 8 5
4 4 2 0 2 2 2 2 2 4 1 2 4 6 7 6 5 5 3 2 2 1 0 1 1 1 1 1 2 2 2 3 3 4 4 4 4 4 5 4 6 7 9 6 7 7 5 5 4
4 1 2 1 1 2 2 2 2 1 2 2 5 7 7 7 6 5 4 3 1 1 1 0 1 1 1 2 2 2 2 2 2 3 4 3 3 4 3 3 3 4 3 4 4 4 5 6 6
3 1 2 2 3 3 3 2 2 0 1 4 7 7 6 6 4 3 3 2 2 2 1 0 0 1 2 2 2 2 2 2 2 2 3 3 3 3 3 3 3 3 3 4 4 4 5 5 5
2 2 2 2 2 1 3 2 2 0 2 5 6 6 5 5 5 3 2 2 2 3 2 1 1 1 2 2 2 2 2 2 2 2 3 3 3 3 3 3 3 3 3 3 4 4 4 4 4
3 4 4 2 1 1 3 2 1 1 4 5 4 4 4 3 3 4 4 3 3 3 2 2 2 2 2 2 2 2 2 2 2 2 2 3 3 3 3 3 3 3 3 4 4 4 4 4 5
4 4 2 3 0 1 3 2 2 2 5 4 3 3 3 2 3 3 3 3 3 3 3 2 2 2 2 2 2 2 2 2 2 2 2 2 3 3 3 3 2 2 2 3 3 3 4 4 4
4 1 1 3 0 1 2 3 2 2 5 4 3 3 3 3 2 3 2 3 3 3 3 2 2 3 2 2 2 2 2 2 2 2 1 2 2 3 3 2 2 2 3 3 3 3 3 3 3
2 2 1 2 2 2 1 4 2 2 4 5 4 3 3 4 5 4 2 2 2 3 3 3 2 2 3 2 2 2 2 2 1 1 1 2 2 3 3 2 2 3 3 3 3 3 3 2 2
3 3 2 3 2 2 2 4 4 3 4 4 4 5 5 6 4 2 2 2 3 2 3 3 3 2 2 2 2 2 1 1 1 1 1 2 2 2 3 2 2 2 3 3 3 2 3 3 2
2 2 1 2 1 2 1 4 4 3 6 6 7 6 6 5 3 2 2 2 3 3 3 3 3 3 2 2 2 2 2 1 1 1 1 1 1 2 2 3 2 2 2 3 3 2 2 1 2
1 4 3 2 1 2 1 5 3 2 2 3 4 5 5 6 6 4 4 3 3 3 4 4 3 3 2 3 3 3 2 2 2 1 0 0 1 1 2 2 2 2 2 2 2 2 3 1 1
2 3 3 2 2 2 1 3 6 3 3 4 5 5 6 6 5 5 5 4 4 5 4 3 4 3 3 3 4 4 3 2 1 1 1 0 1 1 2 2 2 2 2 2 2 2 2 3 1
3 1 2 1 2 1 1 1 8 2 3 5 5 6 6 5 5 5 5 5 4 4 4 3 4 3 3 3 4 4 2 2 1 1 1 0 0 1 1 2 2 2 1 2 2 2 2 2 2
3 4 4 4 3 1 2 3 7 4 5 4 3 4 5 4 4 3 3 3 2 3 3 3 4 3 3 4 4 4 4 3 2 2 1 0 0 0 1 2 2 2 1 2 2 2 2 2 2
4 5 3 3 2 5 2 3 8 6 5 4 4 4 4 4 4 3 3 3 3 3 3 3 4 3 3 4 4 4 4 4 4 3 2 2 1 1 1 1 2 2 2 2 2 2 2 2 2
2 6 6 4 4 4 2 5 7 4 3 2 2 3 3 3 4 4 5 4 4 4 4 4 5 4 4 4 4 3 3 3 2 2 2 2 2 2 1 1 2 2 2 2 2 2 2 2 2
4 2 4 5 1 2 5 6 7 2 2 1 1 1 3 4 4 4 4 4 4 4 4 5 5 4 4 4 4 3 3 3 2 2 2 2 1 1 1 1 1 1 1 2 2 1 2 2 2
3 7 5 4 2 3 5 4 5 5 4 3 2 3 4 4 4 3 4 4 4 4 4 4 4 4 4 3 3 3 2 2 2 2 2 2 2 1 2 1 1 1 1 2 2 1 1 1 1
2 3 4 4 4 4 3 7 5 5 5 5 5 5 4 4 4 4 3 3 3 3 3 3 3 2 2 2 2 2 2 2 2 2 2 2 2 2 2 2 1 1 1 1 2 2 2 2 1
4 5 6 4 4 4 3 9 4 4 4 4 5 4 2 3 3 3 3 3 3 3 3 3 3 3 3 3 2 2 2 2 2 2 2 2 2 2 2 2 1 1 1 1 2 2 2 2 2
Wind_Direction
355 56 77 57 55 53 49 347 88 45 52 48 67 81 94 84 87 118 276 94 73 47 9 24 58 66 65 66 68 66 64 62 64 67 70 70 76 78 80 85 91 94 96 98 97 99 102 102 98
37 73 56 59 77 73 350 325 81 89 135 132 73 72 73 66 67 98 64 74 86 72 33 45 67 69 68 68 69 69 68 65 66 68 71 71 72 74 74 78 86 92 94 93 91 90 93 96 95
85 59 75 69 85 135 160 285 122 86 102 95 75 57 73 75 95 129 173 127 85 60 34 43 69 72 70 69 71 70 69 65 65 66 67 69 72 74 73 73 79 85 88 89 88 87 86 89 89
74 48 55 68 79 170 175 178 134 110 65 53 88 69 53 33 136 146 131 112 92 60 35 41 67 72 73 71 73 74 72 69 65 65 67 68 69 69 71 75 81 87 89 89 89 88 88 88 90
61 72 64 59 42 352 66 193 113 95 78 62 85 91 50 5 94 118 120 114 111 79 43 45 65 66 70 73 72 76 75 72 69 65 67 68 67 66 65 68 80 90 88 87 90 91 87 88 86
57 66 81 93 43 358 9 43 92 91 95 89 92 98 68 56 110 125 117 106 104 88 56 45 60 64 65 66 72 75 75 73 70 65 65 66 66 65 63 66 79 85 87 87 89 89 85 83 82
94 87 109 127 106 31 43 68 101 110 106 122 123 107 106 152 140 122 102 89 78 70 57 42 39 48 58 62 68 75 77 75 71 67 62 61 63 65 64 66 72 77 80 84 84 83 84 83 79
112 97 89 106 122 60 345 67 77 96 111 105 112 134 175 193 137 103 84 68 60 51 45 38 35 40 40 43 62 75 77 75 72 69 64 61 57 56 60 64 69 73 77 78 78 75 80 79 78
82 78 117 171 157 188 35 79 42 45 96 77 73 140 158 132 120 103 84 59 45 44 26 27 34 36 41 49 54 63 68 66 63 62 62 59 45 42 46 57 67 69 71 74 73 72 74 73 69
77 108 187 195 172 154 84 91 112 71 61 57 58 66 105 120 127 124 126 132 127 353 351 20 18 29 42 61 54 48 58 53 51 51 54 52 47 42 47 48 60 65 66 66 67 67 65 61 54
90 143 172 116 147 125 93 64 81 118 116 193 165 148 134 133 135 142 156 171 196 213 290 8 7 28 69 77 76 56 55 54 52 52 58 60 53 45 44 42 43 49 54 52 55 54 48 49 49
92 95 136 140 112 105 117 104 79 123 220 192 151 146 144 151 159 168 178 188 181 165 231 344 28 70 78 88 86 78 71 64 59 53 61 70 64 55 49 48 45 46 45 49 49 53 51 52 51
83 91 60 92 84 97 97 93 117 27 49 103 115 127 145 157 165 178 182 177 169 187 212 213 126 113 107 97 95 90 87 83 78 71 68 77 78 72 63 57 51 51 52 54 55 56 55 53 50
118 86 53 51 72 57 97 56 89 327 104 113 130 150 162 166 173 172 175 179 186 193 201 183 145 120 116 118 115 104 103 98 86 72 71 80 84 82 76 66 54 46 49 55 63 63 60 56 55
84 65 20 11 47 81 97 22 272 187 130 131 152 165 169 179 183 193 195 190 191 190 183 173 158 117 116 118 115 105 100 100 94 84 76 80 86 88 88 78 63 46 51 59 62 56 58 60 54
60 59 10 306 59 98 114 248 277 146 138 152 174 186 192 213 217 221 206 189 176 165 167 182 162 131 125 119 115 111 104 102 99 93 83 80 90 97 94 86 73 62 66 66 69 60 63 57 53
42 89 251 301 305 115 129 234 264 157 154 177 200 211 216 236 255 247 226 200 176 165 161 166 148 143 142 129 113 104 100 94 97 96 97 98 99 105 106 100 90 83 79 69 77 63 74 73 62
198 189 231 257 277 121 168 250 261 196 180 196 209 224 225 224 235 232 219 193 166 154 146 141 141 136 125 111 92 78 75 72 76 91 104 110 110 111 110 102 91 92 89 68 69 70 57 70 66
165 164 221 258 254 148 213 260 267 218 207 214 219 222 227 235 242 227 194 153 125 126 137 142 138 146 132 119 124 119 120 94 69 75 98 111 116 116 113 107 98 96 103 108 99 87 67 46 39
154 151 238 297 318 161 239 278 274 214 214 215 214 219 226 239 246 221 185 156 150 150 152 153 156 155 163 153 144 136 130 122 115 82 67 85 113 128 128 122 119 111 106 98 101 101 88 46 40
199 180 198 219 3 34 19 320 299 270 229 223 220 221 222 226 228 217 201 187 166 166 174 172 172 159 158 143 111 95 73 55 47 38 29 22 112 118 121 130 129 127 129 139 142 133 125 128 31
235 222 183 161 107 299 85 284 287 272 263 239 234 228 229 232 227 215 204 195 189 193 178 168 158 154 151 142 138 137 140 154 189 195 207 206 125 131 134 132 130 134 138 148 164 145 142 134 137
207 96 122 129 141 355 359 207 283 294 262 252 239 230 232 229 218 211 205 201 196 186 172 165 149 150 149 144 149 147 146 162 143 124 124 127 142 147 141 141 138 146 155 160 153 137 136 142 153
125 71 57 51 72 297 243 192 276 246 231 246 241 235 227 215 206 196 188 173 173 165 158 151 145 146 146 151 152 160 161 156 143 141 148 155 141 164 156 152 155 166 173 176 177 169 158 161 153
82 88 35 357 0 256 260 212 252 253 234 224 235 239 219 194 183 176 169 167 170 163 161 157 152 157 160 160 168 175 172 167 171 177 180 174 178 212 224 171 172 177 191 189 173 165 178 175 165
160 139 155 197 228 278 298 238 254 266 263 230 227 225 202 189 185 185 185 182 183 174 163 162 164 167 170 173 183 185 176 175 187 187 182 185 197 211 202 185 183 184 186 186 174 172 187 176 177
136 157 159 134 176 275 276 284 298 295 320 290 248 211 207 202 193 189 184 182 180 178 175 175 172 169 176 182 181 182 183 181 188 187 181 185 193 194 175 173 178 183 187 180 168 178 193 175 179
140 144 108 122 162 263 289 277 258 267 264 262 250 235 227 207 197 191 186 186 185 183 176 169 169 177 178 176 179 175 183 185 179 171 182 192 191 177 162 166 178 184 183 173 161 172 187 156 181
113 116 118 127 160 173 267 272 234 234 229 231 237 236 224 209 200 194 197 190 178 155 150 157 159 152 155 168 169 161 170 167 163 175 196 194 181 176 180 189 187 186 184 179 166 184 179 178 197
182 175 154 161 214 184 207 268 280 266 239 219 233 241 228 211 197 189 183 172 161 155 150 156 161 163 174 170 156 159 160 153 163 188 203 188 182 190 187 177 172 184 192 186 178 195 195 192 200